Location: Unspecified
(0.0000°N, 0.0000°E)
Time: 16:23:40
(UTC+00:00)

A-11 Canister half - Pass Details

Date: 23 November 2019
Orbit: 1526 x 1683 km, 47.3° (Epoch: 12 December)

Event Time Altitude Azimuth Distance (km) Brightness Sun altitude
Rises 21:45:27 0° 276° (W) 4,673 11.9 -54.1°
Reaches altitude 10° 21:50:54 10° 250° (WSW) 3,689 11.4 -55.1°
Maximum altitude 21:54:44 13° 225° (SW) 3,454 11.2 -55.9°
Drops below altitude 10° 21:58:36 10° 200° (SSW) 3,705 11.3 -56.6°
Sets 22:04:11 0° 173° (S) 4,711 11.8 -57.7°
